When you browse on this site, cookies collect data to enhance your experience and personalize the content and advertising you see.
Visit our Privacy Policy to learn more. By continuing to use the site, you agree to this use of cookies and data.
  • In Denmark
  • List of Countries
  • For 7 days
  • Water Temperature
  • Satellite Maps
  • Weather Map
  • Weather Widgets
  • user-avatar
    Login

    Hourly Weather Markovo

    Today, 19 January, Saturday

    Time Temperature Precipitation Wind Pressure Humidity
    00:00 -2°C° 0.5 mm 7 mps 739 mmHg 89%
    01:00 -2°C° 0 mm 7 mps 740 mmHg 88%
    02:00 -2°C° 0 mm 6 mps 740 mmHg 87%
    03:00 -2°C° 0 mm 6 mps 740 mmHg 86%
    04:00 -3°C° 0.1 mm 6 mps 741 mmHg 87%
    05:00 -4°C° 0.1 mm 6 mps 742 mmHg 88%
    06:00 -5°C° 0.1 mm 5 mps 742 mmHg 89%
    07:00 -7°C° 0 mm 4 mps 743 mmHg 90%
    08:00 -10°C° 0 mm 4 mps 744 mmHg 91%
    09:00 -12°C° 0 mm 3 mps 744 mmHg 92%
    10:00 -10°C° 0 mm 3 mps 745 mmHg 91%
    11:00 -10°C° 0 mm 3 mps 745 mmHg 90%
    12:00 -9°C° 0 mm 3 mps 746 mmHg 90%
    13:00 -10°C° 0 mm 4 mps 746 mmHg 90%
    14:00 -10°C° 0 mm 4 mps 746 mmHg 90%
    15:00 -10°C° 0 mm 4 mps 746 mmHg 91%
    16:00 -10°C° 0 mm 4 mps 746 mmHg 90%
    17:00 -10°C° 0 mm 4 mps 747 mmHg 89%
    18:00 -11°C° 0 mm 5 mps 747 mmHg 88%
    19:00 -10°C° 0 mm 4 mps 747 mmHg 88%
    20:00 -11°C° 0 mm 4 mps 747 mmHg 89%
    21:00 -11°C° 0 mm 4 mps 748 mmHg 89%
    22:00 -11°C° 0 mm 4 mps 748 mmHg 90%
    23:00 -11°C° 0 mm 4 mps 748 mmHg 91%

    Tomorrow, 20 January, Sunday

    Time Temperature Precipitation Wind Pressure Humidity
    00:00 -11°C° 0 mm 4 mps 749 mmHg 91%
    01:00 -12°C° 0 mm 4 mps 749 mmHg 92%
    02:00 -12°C° 0 mm 4 mps 750 mmHg 93%
    03:00 -13°C° 0 mm 3 mps 750 mmHg 93%
    04:00 -12°C° 0 mm 4 mps 750 mmHg 94%
    05:00 -12°C° 0 mm 4 mps 750 mmHg 94%
    06:00 -12°C° 0 mm 4 mps 750 mmHg 94%
    07:00 -11°C° 0 mm 4 mps 750 mmHg 93%
    08:00 -12°C° 0 mm 5 mps 750 mmHg 91%
    09:00 -11°C° 0 mm 5 mps 750 mmHg 89%
    10:00 -10°C° 0 mm 5 mps 750 mmHg 88%
    11:00 -10°C° 0 mm 6 mps 749 mmHg 87%
    12:00 -9°C° 0 mm 6 mps 749 mmHg 86%
    13:00 -10°C° 0 mm 6 mps 749 mmHg 86%
    14:00 -10°C° 0 mm 6 mps 748 mmHg 87%
    15:00 -10°C° 0 mm 6 mps 748 mmHg 87%
    16:00 -10°C° 0.1 mm 6 mps 748 mmHg 87%
    17:00 -10°C° 0.1 mm 6 mps 748 mmHg 87%
    18:00 -10°C° 0.1 mm 6 mps 747 mmHg 87%
    19:00 -10°C° 0.1 mm 6 mps 747 mmHg 87%
    20:00 -10°C° 0.1 mm 6 mps 747 mmHg 87%
    21:00 -11°C° 0.1 mm 7 mps 747 mmHg 87%
    22:00 -10°C° 0.3 mm 6 mps 747 mmHg 88%
    23:00 -10°C° 0.3 mm 6 mps 746 mmHg 88%

    Day after tomorrow, 21 January, Monday

    Time Temperature Precipitation Wind Pressure Humidity
    00:00 -10°C° 0.3 mm 6 mps 746 mmHg 89%
    01:00 -10°C° 0.1 mm 6 mps 746 mmHg 89%
    02:00 -10°C° 0.1 mm 5 mps 746 mmHg 89%
    03:00 -10°C° 0.1 mm 5 mps 746 mmHg 89%
    04:00 -10°C° 0 mm 5 mps 746 mmHg 90%
    05:00 -10°C° 0 mm 4 mps 746 mmHg 91%
    06:00 -10°C° 0 mm 4 mps 746 mmHg 91%
    07:00 -12°C° 0 mm 4 mps 746 mmHg 91%
    08:00 -14°C° 0 mm 4 mps 747 mmHg 91%
    09:00 -16°C° 0 mm 4 mps 747 mmHg 91%
    10:00 -16°C° 0 mm 4 mps 747 mmHg 90%
    11:00 -15°C° 0 mm 4 mps 748 mmHg 89%
    12:00 -15°C° 0 mm 5 mps 748 mmHg 88%
    13:00 -15°C° 0 mm 4 mps 748 mmHg 88%
    14:00 -15°C° 0 mm 4 mps 749 mmHg 88%
    15:00 -15°C° 0 mm 4 mps 749 mmHg 88%
    16:00 -16°C° 0 mm 4 mps 749 mmHg 90%
    17:00 -17°C° 0 mm 4 mps 749 mmHg 91%
    18:00 -17°C° 0 mm 3 mps 750 mmHg 92%
    19:00 -17°C° 0 mm 3 mps 750 mmHg 93%
    20:00 -18°C° 0 mm 3 mps 750 mmHg 93%
    21:00 -18°C° 0 mm 3 mps 750 mmHg 94%
    22:00 -18°C° 0 mm 3 mps 751 mmHg 94%
    23:00 -18°C° 0 mm 3 mps 751 mmHg 94%

    22 January, Tuesday

    Time Temperature Precipitation Wind Pressure Humidity
    00:00 -19°C° 0 mm 3 mps 751 mmHg 94%
    01:00 -19°C° 0 mm 3 mps 751 mmHg 95%
    02:00 -19°C° 0 mm 3 mps 752 mmHg 95%
    03:00 -21°C° 0 mm 3 mps 752 mmHg 95%
    04:00 -21°C° 0 mm 3 mps 752 mmHg 95%
    05:00 -19°C° 0 mm 2 mps 752 mmHg 96%
    06:00 -19°C° 0 mm 2 mps 752 mmHg 96%
    07:00 -19°C° 0 mm 2 mps 752 mmHg 96%
    08:00 -19°C° 0 mm 2 mps 752 mmHg 96%
    09:00 -19°C° 0 mm 2 mps 752 mmHg 96%
    10:00 -17°C° 0 mm 2 mps 752 mmHg 95%
    11:00 -16°C° 0 mm 2 mps 752 mmHg 94%
    12:00 -14°C° 0 mm 2 mps 752 mmHg 93%
    13:00 -15°C° 0 mm 3 mps 752 mmHg 93%
    14:00 -14°C° 0 mm 3 mps 752 mmHg 93%
    15:00 -13°C° 0 mm 3 mps 751 mmHg 94%
    16:00 -14°C° 0.1 mm 3 mps 751 mmHg 94%
    17:00 -15°C° 0.1 mm 4 mps 751 mmHg 94%
    18:00 -15°C° 0.1 mm 4 mps 751 mmHg 94%
    19:00 -15°C° 0.1 mm 4 mps 751 mmHg 93%
    20:00 -14°C° 0.1 mm 4 mps 750 mmHg 92%
    21:00 -14°C° 0.1 mm 5 mps 750 mmHg 92%
    22:00 -15°C° 0.1 mm 4 mps 750 mmHg 91%
    23:00 -15°C° 0.1 mm 4 mps 750 mmHg 90%

    23 January, Wednesday

    Time Temperature Precipitation Wind Pressure Humidity
    00:00 -15°C° 0.1 mm 4 mps 750 mmHg 89%
    01:00 -16°C° 0 mm 4 mps 750 mmHg 90%
    02:00 -17°C° 0 mm 4 mps 750 mmHg 90%
    03:00 -18°C° 0 mm 4 mps 750 mmHg 91%
    04:00 -18°C° 0 mm 4 mps 750 mmHg 91%
    05:00 -18°C° 0 mm 3 mps 750 mmHg 91%
    06:00 -18°C° 0 mm 3 mps 750 mmHg 91%
    07:00 -18°C° 0 mm 3 mps 750 mmHg 91%
    08:00 -18°C° 0 mm 3 mps 750 mmHg 92%
    09:00 -18°C° 0 mm 3 mps 751 mmHg 92%
    10:00 -17°C° 0 mm 3 mps 751 mmHg 91%
    11:00 -17°C° 0 mm 3 mps 751 mmHg 91%
    12:00 -16°C° 0 mm 3 mps 751 mmHg 91%
    13:00 -15°C° 0 mm 3 mps 751 mmHg 91%
    14:00 -15°C° 0 mm 3 mps 751 mmHg 92%
    15:00 -15°C° 0 mm 3 mps 751 mmHg 92%
    16:00 -15°C° 0 mm 2 mps 752 mmHg 93%
    17:00 -16°C° 0 mm 2 mps 752 mmHg 93%
    18:00 -17°C° 0 mm 2 mps 752 mmHg 94%
    19:00 -17°C° 0 mm 2 mps 752 mmHg 94%
    20:00 -17°C° 0 mm 2 mps 753 mmHg 94%
    21:00 -16°C° 0 mm 2 mps 753 mmHg 94%
    22:00 -16°C° 0 mm 2 mps 753 mmHg 94%
    23:00 -16°C° 0 mm 2 mps 753 mmHg 94%

    24 January, Thursday

    Time Temperature Precipitation Wind Pressure Humidity
    00:00 -16°C° 0 mm 2 mps 753 mmHg 94%
    01:00 -16°C° 0 mm 2 mps 754 mmHg 94%
    02:00 -16°C° 0 mm 2 mps 754 mmHg 94%
    03:00 -16°C° 0 mm 2 mps 754 mmHg 94%
    04:00 -16°C° 0 mm 2 mps 754 mmHg 95%
    05:00 -16°C° 0 mm 2 mps 754 mmHg 95%
    06:00 -17°C° 0 mm 2 mps 754 mmHg 95%
    07:00 -17°C° 0 mm 2 mps 755 mmHg 95%
    08:00 -17°C° 0 mm 2 mps 755 mmHg 95%
    09:00 -17°C° 0 mm 2 mps 755 mmHg 94%
    10:00 -16°C° 0 mm 2 mps 756 mmHg 94%
    11:00 -13°C° 0 mm 1 mps 756 mmHg 93%
    12:00 -12°C° 0 mm 1 mps 756 mmHg 93%
    13:00 -12°C° 0 mm 1 mps 756 mmHg 92%
    14:00 -12°C° 0 mm 1 mps 757 mmHg 92%
    15:00 -11°C° 0 mm 0 mps 757 mmHg 91%
    16:00 -12°C° 0 mm 1 mps 757 mmHg 92%
    17:00 -13°C° 0 mm 1 mps 757 mmHg 93%
    18:00 -14°C° 0 mm 1 mps 758 mmHg 93%
    19:00 -14°C° 0 mm 1 mps 758 mmHg 94%
    20:00 -14°C° 0 mm 1 mps 758 mmHg 94%
    21:00 -16°C° 0 mm 2 mps 758 mmHg 94%
    22:00 -16°C° 0 mm 2 mps 759 mmHg 94%
    23:00 -16°C° 0 mm 2 mps 759 mmHg 95%
    Show more